{"data":{"norad_id":63571,"intl_designator":"2025-076C","name":"STARLINK-33722","alt_names":[],"object_type":"PAYLOAD","status":"ACTIVE","operator":null,"country":"US","launch_date":"2025-04-14","launch_site_code":"AFETR","launch_vehicle":null,"mission":null,"orbit_class":"UNKNOWN","rcs_meters":null,"size_class":null,"mass_kg":null,"dimensions":null,"purposes":["comms"],"wikipedia_slug":null,"has_3d_model":false,"image_url":null,"decayed_at":null,"tle_current":{"epoch":"2026-09-20T10:08:12.695424Z","epoch_age_seconds":162204,"freshness":"FRESH","line1":"1 63571U 25076C   26263.42236916  .00010202  00000+0  37963-3 0  9999","line2":"2 63571  43.0002 301.8287 0000892 276.0764  83.9986 15.27588294 81602","mean_motion":15.27588294,"eccentricity":8.92e-5,"inclination_deg":43.0002,"raan_deg":301.8287,"arg_perigee_deg":276.0764,"mean_anomaly_deg":83.9986,"bstar":0.00037963,"rev_number":8160,"period_min":94.266236894848,"perigee_km":482.41224534779,"apogee_km":483.63627651675,"semimajor_km":6861.1612609323,"source":"CELESTRAK","updated_at":"2026-09-21T09:00:35.045029Z"}}}